Weather History for Greenville, MS

Change the Weather History Date:

Monday, November 22, 2010

  Actual Average Record
Temperature  
Mean Temperature 68 °F 51 °F  
Max Temperature 78 °F 62 °F 83 °F (1921)
Min Temperature 57 °F 41 °F 20 °F (2008)
Degree Days  
Heating Degree Days 0 14  
Month to date heating degree days 235 226  
Since 1 July heating degree days 310 340  
Cooling Degree Days 3 0  
Month to date cooling degree days 6 9  
Year to date cooling degree days 2666 2183  
Growing Degree Days 18 (Base 50)    
Moisture  
Dew Point 59 °F    
Average Humidity 76    
Maximum Humidity 97    
Minimum Humidity 54    
Precipitation  
Precipitation 0.00 in 0.19 in 3.25 in (1986)
Month to date precipitation 2.77 3.35  
Year to date precipitation 26.37 45.31  
Sea Level Pressure  
Sea Level Pressure 30.08 in    
Wind  
Wind Speed 13 mph (SSE)    
Max Wind Speed 24 mph    
Max Gust Speed 28 mph    
Visibility 10 miles    
Events      
T = Trace of Precipitation, MM = Missing Value Source: NWS Daily Summary

Daily Weather History Graph

Daily Weather History Graph

Search for Another Location

Airport:

Trip Planner

Search our weather history database for the weather conditions in past years. The results will help you decide how hot, cold, wet, or windy it might be!

Date:

Astronomy

Nov. 22, 2010 Rise Set
Actual Time 6:41 AM CST 4:58 PM CST
Civil Twilight 6:15 AM CST 5:24 PM CST
Nautical Twilight 5:44 AM CST 5:55 PM CST
Astronomical Twilight 5:15 AM CST 6:24 PM CST
Moon 5:45 PM CST (11/22) 7:39 AM CST (11/22)
Length of Visible Light 11h 09m
Length of Day
10h 16m
Full, 99% of the Moon is Illuminated
Nov 22
Full
Nov 28
Last Quarter
Dec 5
New
Dec 13
First Quarter
Dec 21
Full

Hourly Weather History & Observations

Time (CST) Temp. Dew Point Humidity Pressure Visibility Wind Dir Wind Speed Gust Speed Precip Events Conditions
12:53 AM 63.0 °F 54.0 °F 72% 30.12 in 10.0 mi SSE 12.7 mph - N/A   Clear
1:53 AM 61.0 °F 54.0 °F 78% 30.13 in 10.0 mi SSE 10.4 mph - N/A   Clear
2:53 AM 57.0 °F 54.0 °F 89% 30.13 in 10.0 mi South 8.1 mph - N/A   Partly Cloudy
3:53 AM 60.1 °F 55.9 °F 86% 30.13 in 10.0 mi SE 8.1 mph - N/A   Overcast
4:53 AM 60.1 °F 57.0 °F 90% 30.13 in 10.0 mi SSE 9.2 mph - N/A   Overcast
5:53 AM 60.1 °F 57.9 °F 93% 30.13 in 10.0 mi SE 10.4 mph - N/A   Mostly Cloudy
6:45 AM 60.8 °F 57.2 °F 88% 30.11 in 10.0 mi SSE 9.2 mph - N/A   Mostly Cloudy
6:53 AM 60.1 °F 57.9 °F 93% 30.13 in 10.0 mi SSE 11.5 mph - N/A   Mostly Cloudy
7:03 AM 60.8 °F 57.2 °F 88% 30.11 in 10.0 mi SSE 9.2 mph - N/A   Mostly Cloudy
7:53 AM 61.0 °F 59.0 °F 93% 30.14 in 10.0 mi SSE 8.1 mph - N/A   Mostly Cloudy
8:53 AM 64.9 °F 59.0 °F 81% 30.14 in 10.0 mi SSE 11.5 mph - N/A   Overcast
9:53 AM 69.8 °F 60.8 °F 73% 30.11 in 10.0 mi South 16.1 mph - N/A   Mostly Cloudy
10:53 AM 73.0 °F 62.1 °F 68% 30.11 in 10.0 mi South 19.6 mph 26.5 mph N/A   Scattered Clouds
11:53 AM 77.0 °F 61.0 °F 58% 30.08 in 10.0 mi South 20.7 mph 27.6 mph N/A   Partly Cloudy
12:53 PM 78.1 °F 61.0 °F 56% 30.05 in 10.0 mi South 17.3 mph 24.2 mph N/A   Mostly Cloudy
1:53 PM 75.9 °F 61.0 °F 60% 30.03 in 10.0 mi South 17.3 mph - N/A   Overcast
2:53 PM 75.9 °F 61.0 °F 60% 30.02 in 10.0 mi South 15.0 mph - N/A   Overcast
3:53 PM 75.9 °F 61.0 °F 60% 30.01 in 10.0 mi South 17.3 mph - N/A   Overcast
4:53 PM 73.0 °F 61.0 °F 66% 30.01 in 10.0 mi South 8.1 mph - N/A   Overcast
5:53 PM 73.0 °F 61.0 °F 66% 30.02 in 10.0 mi SSE 10.4 mph - N/A   Overcast
6:53 PM 72.0 °F 61.0 °F 68% 30.03 in - SSE 11.5 mph - N/A   Unknown
7:53 PM 72.0 °F 60.1 °F 66% 30.03 in 10.0 mi South 11.5 mph - N/A   Overcast
8:53 PM 71.1 °F 61.0 °F 70% 30.03 in 10.0 mi South 15.0 mph - N/A   Overcast
9:53 PM 69.1 °F 62.1 °F 78% 30.04 in 10.0 mi South 10.4 mph - N/A   Mostly Cloudy
10:53 PM 69.1 °F 63.0 °F 81% 30.04 in 10.0 mi South 12.7 mph - N/A   Overcast
11:53 PM 69.1 °F 63.0 °F 81% 30.02 in 10.0 mi South 20.7 mph - N/A   Mostly Cloudy